Voltar ao catálogo

NIMBUS 2 DEB

AtivoSSO
NORAD 42439·DEBRIS·🇺🇸 United States

Lançado May 15, 1966 de Vandenberg Space Force Base

Loading…

Próximas Passagens (próximas 24 horas)

TLE

ObsoletoSource: Space-Track

Época: Aug 25, 2026, 19:35 UTC

1 42439U 66040BS  26237.81647934  .00001780  00000-0  28273-2 0  9990
2 42439 100.2263  96.4380 0042898 326.5961  33.2468 13.50642841532416

Acompanhe NIMBUS 2 DEB em tempo real com AllMySat

Download on the App Store